Date String (YYYY-MM-DD hh:mm:ss) UTC,Instrument flags,Ambient pressure (hPa),Sample flow (lpm),Bypass flow (lpm),Sample temperature (°C),Ambient temperature (°C),ASC tube jacket temperature (°C),LED temperature (°C),Box temperature (°C),Sample RH (%),Span deviation,Mass concentration (μg/m³),Mass concentration (μg/m³),Mass concentration (μg/m³)
DateTimeUTC,F1_M11,P_M11,Q1_M11,Q2_M11,T1_M11,T2_M11,T3_M11,T4_M11,T5_M11,U1_M11,ZSPAN_M11,X0_M11,X2_M11,X1_M11
2022-12-27 16:00:00,,0816.0,5.00,0.00,22.8,21.7,00.0,31.6,24.7,13.2,0000.0,0000.87,0000.62,0000.52
2022-12-27 16:01:00,,0816.0,4.97,0.00,22.8,21.7,00.0,31.6,24.7,12.9,0000.0,0000.86,0000.65,0000.55
2022-12-27 16:02:00,,0815.9,4.96,0.00,22.8,21.7,00.0,31.6,24.7,13.3,0000.0,0000.89,0000.67,0000.58
2022-12-27 16:03:00,,0815.9,5.02,0.00,22.8,21.7,00.0,31.6,24.7,13.7,0000.0,0000.94,0000.71,0000.63
2022-12-27 16:04:00,,0815.9,5.02,0.00,22.8,21.7,00.0,31.6,24.7,13.4,0000.0,0000.95,0000.64,0000.58
2022-12-27 16:05:00,,0815.9,4.99,0.00,22.8,21.7,00.0,31.6,24.7,13.1,0000.0,0001.01,0000.53,0000.46
2022-12-27 16:06:00,,0815.9,4.97,0.00,22.8,21.7,00.0,31.6,24.7,12.3,0000.0,0000.90,0000.45,0000.40
2022-12-27 16:07:00,,0815.9,4.97,0.00,22.8,21.7,00.0,31.6,24.7,12.4,0000.0,0001.34,0000.43,0000.37
2022-12-27 16:08:00,,0815.7,4.98,0.00,22.8,21.7,00.0,31.6,24.7,12.4,0000.0,0001.62,0000.43,0000.37
2022-12-27 16:09:00,,0815.7,5.03,0.00,22.8,21.6,00.0,31.6,24.7,12.7,0000.0,0001.62,0000.43,0000.37
2022-12-27 16:10:00,,0815.6,5.01,0.00,22.8,21.7,00.0,31.6,24.6,12.9,0000.0,0001.62,0000.43,0000.37
2022-12-27 16:11:00,,0815.8,4.97,0.00,22.8,21.6,00.0,31.7,24.6,13.3,0000.0,0001.59,0000.41,0000.35
2022-12-27 16:12:00,,0816.1,4.97,0.00,22.8,21.6,00.0,31.7,24.6,13.5,0000.0,0001.58,0000.40,0000.34
2022-12-27 16:13:00,,0816.1,5.02,0.00,22.8,21.6,00.0,31.7,24.7,13.7,0000.0,0001.63,0000.41,0000.33
2022-12-27 16:14:00,,0815.7,5.03,0.00,22.8,21.6,00.0,31.7,24.7,14.1,0000.0,0001.66,0000.40,0000.31
2022-12-27 16:15:00,,0815.7,4.90,0.00,22.8,21.7,00.0,31.7,24.7,14.3,0000.0,0001.71,0000.40,0000.31
2022-12-27 16:16:00,,0815.7,4.94,0.00,22.8,21.7,00.0,31.7,24.7,14.1,0000.0,0001.63,0000.39,0000.31
2022-12-27 16:17:00,,0815.7,5.04,0.00,22.8,21.7,00.0,31.7,24.7,13.8,0000.0,0001.45,0000.40,0000.31
2022-12-27 16:18:00,,0815.7,5.03,0.00,22.8,21.8,00.0,31.7,24.7,13.9,0000.0,0001.46,0000.40,0000.32
2022-12-27 16:19:00,,0816.0,4.99,0.00,22.8,21.8,00.0,31.7,24.7,14.1,0000.0,0001.03,0000.41,0000.32
2022-12-27 16:20:00,,0816.0,5.00,0.00,22.9,21.8,00.0,31.7,24.7,14.2,0000.0,0000.89,0000.47,0000.33
2022-12-27 16:21:00,,0815.9,4.97,0.00,22.9,21.8,00.0,31.7,24.8,13.8,0000.0,0000.94,0000.49,0000.34
2022-12-27 16:22:00,,0815.4,5.05,0.00,22.9,21.8,00.0,31.7,24.8,13.6,0000.0,0000.99,0000.50,0000.34
2022-12-27 16:23:00,,0815.8,4.99,0.00,22.9,21.8,00.0,31.7,24.7,12.8,0000.0,0001.01,0000.50,0000.33
2022-12-27 16:24:00,,0816.0,4.99,0.00,22.9,21.8,00.0,31.7,24.8,13.4,0000.0,0000.97,0000.48,0000.31
2022-12-27 16:25:00,,0816.1,4.97,0.00,22.9,21.8,00.0,31.7,24.7,14.0,0000.0,0001.07,0000.45,0000.30
2022-12-27 16:26:00,,0816.1,4.98,0.00,22.9,21.8,00.0,31.7,24.6,14.3,0000.0,0001.48,0000.42,0000.28
2022-12-27 16:27:00,,0815.9,5.02,0.00,22.9,21.9,00.0,31.7,24.7,14.1,0000.0,0001.38,0000.38,0000.25
2022-12-27 16:28:00,,0816.1,5.03,0.00,22.9,21.9,00.0,31.7,24.7,13.7,0000.0,0001.31,0000.36,0000.23
2022-12-27 16:29:00,,0816.0,5.00,0.00,23.0,21.9,00.0,31.7,24.7,12.6,0000.0,0001.29,0000.35,0000.22
2022-12-27 16:30:00,,0815.4,4.98,0.00,23.0,21.9,00.0,31.8,24.8,12.6,0000.0,0001.33,0000.35,0000.21
2022-12-27 16:31:00,,0815.4,4.97,0.00,23.0,22.0,00.0,31.8,24.9,12.3,0000.0,0001.27,0000.32,0000.19
2022-12-27 16:32:00,,0815.4,5.03,0.00,23.0,22.0,00.0,31.8,24.9,11.3,0000.0,0001.21,0000.29,0000.18
2022-12-27 16:33:00,,0815.4,5.03,0.00,23.0,22.0,00.0,31.8,24.9,12.8,0000.0,0001.21,0000.30,0000.17
2022-12-27 16:34:00,,0815.5,4.99,0.00,23.1,22.1,00.0,31.8,24.9,13.4,0000.0,0001.21,0000.30,0000.17
2022-12-27 16:35:00,,0815.4,4.98,0.00,23.1,22.1,00.0,31.8,24.9,13.0,0000.0,0001.21,0000.29,0000.17
2022-12-27 16:36:00,,0815.4,5.06,0.00,23.1,22.1,00.0,31.8,24.9,13.3,0000.0,0001.02,0000.28,0000.16
2022-12-27 16:37:00,,0815.4,5.03,0.00,23.1,22.1,00.0,31.9,24.9,13.2,0000.0,0000.51,0000.27,0000.16
2022-12-27 16:38:00,,0815.4,4.98,0.00,23.2,22.2,00.0,31.9,25.0,12.5,0000.0,0000.50,0000.26,0000.15
2022-12-27 16:39:00,,0815.4,5.00,0.00,23.2,22.2,00.0,31.9,25.0,13.2,0000.0,0000.48,0000.25,0000.15
2022-12-27 16:40:00,,0815.4,5.01,0.00,23.2,22.2,00.0,31.9,25.0,13.4,0000.0,0000.47,0000.25,0000.15
2022-12-27 16:41:00,,0815.4,5.00,0.00,23.2,22.3,00.0,31.9,25.1,13.0,0000.0,0000.43,0000.25,0000.15
2022-12-27 16:42:00,,0815.4,4.99,0.00,23.3,22.3,00.0,32.0,25.1,12.9,0000.0,0000.36,0000.23,0000.16
2022-12-27 16:43:00,,0815.3,4.98,0.00,23.3,22.3,00.0,32.0,25.1,13.0,0000.0,0000.36,0000.23,0000.16
2022-12-27 16:44:00,,0815.4,5.01,0.00,23.3,22.3,00.0,32.0,25.1,13.5,0000.0,0000.29,0000.20,0000.16
2022-12-27 16:45:00,,0815.4,5.06,0.00,23.3,22.3,00.0,32.0,25.1,13.4,0000.0,0000.31,0000.22,0000.16
2022-12-27 16:46:00,,0815.3,4.98,0.00,23.3,22.3,00.0,32.0,25.1,13.0,0000.0,0000.36,0000.24,0000.16
2022-12-27 16:47:00,,0815.4,5.00,0.00,23.4,22.4,00.0,32.1,25.1,12.8,0000.0,0000.45,0000.29,0000.17
2022-12-27 16:48:00,,0815.5,4.98,0.00,23.4,22.4,00.0,32.1,25.2,12.9,0000.0,0000.47,0000.30,0000.17
2022-12-27 16:49:00,,0815.3,4.98,0.00,23.4,22.4,00.0,32.1,25.2,12.7,0000.0,0000.53,0000.32,0000.17
2022-12-27 16:50:00,,0815.3,4.99,0.00,23.4,22.4,00.0,32.1,25.2,12.4,0000.0,0000.54,0000.32,0000.17
2022-12-27 16:51:00,,0815.2,4.99,0.00,23.4,22.4,00.0,32.1,25.2,11.2,0000.0,0000.58,0000.33,0000.18
2022-12-27 16:52:00,,0815.2,5.03,0.00,23.4,22.4,00.0,32.1,25.2,11.2,0000.0,0000.53,0000.31,0000.17
2022-12-27 16:53:00,,0815.1,5.01,0.00,23.5,22.4,00.0,32.2,25.2,10.8,0000.0,0000.54,0000.31,0000.17
2022-12-27 16:54:00,,0815.0,4.98,0.00,23.5,22.4,00.0,32.2,25.3,10.9,0000.0,0000.54,0000.31,0000.17
2022-12-27 16:55:00,,0814.9,4.96,0.00,23.5,22.4,00.0,32.2,25.3,11.0,0000.0,0000.56,0000.32,0000.17
2022-12-27 16:56:00,,0815.0,4.98,0.00,23.5,22.4,00.0,32.2,25.2,11.4,0000.0,0000.52,0000.30,0000.17
2022-12-27 16:57:00,,0814.9,4.99,0.00,23.5,22.4,00.0,32.2,25.3,10.9,0000.0,0000.48,0000.28,0000.16
2022-12-27 16:58:00,,0814.9,5.02,0.00,23.5,22.4,00.0,32.2,25.2,11.2,0000.0,0000.39,0000.24,0000.16
2022-12-27 16:59:00,,0814.8,5.02,0.00,23.5,22.4,00.0,32.2,25.2,11.1,0000.0,0000.36,0000.22,0000.15
